[[{"header":{"parameterUnit":"m.s-1","parameterCategory":1,"la1":30.2991,"la2":30.254,"lo1":-89.0895,"lo2":-89.0444,"dy":0.0017,"dx":0.0017,"nx":28,"ny":28,"refTime":"2024-05-03T09:00:00:Z","depth":0,"parameterNumber":2,"parameterNumberName":"U-component_of_WINDS"},"data":[0,0,0,0,0,0,0,0,0,0,0,0,0,0,0,0,0,0,0,0,0,0,0,0,0,0,0,0,0,0,0,0,0,0,0,0,0,0,0,0,0,0,0,0,0,0,0,0,0,0,0,0,0,0,0,0,0,0,-0.5381,-0.5381,0,-0.5404,-0.5404,-0.5404,-0.5401,-0.5401,-0.5401,-0.54,-0.5425,-0.5426,-0.5427,0,0,0,0,0,0,0,0,0,0,0,0,0,-0.5338,-0.5339,-0.5381,-0.5381,-0.5382,-0.5404,-0.5404,-0.5404,-0.5402,-0.5401,-0.5401,-0.54,-0.5425,-0.5426,-0.5427,0,0,0,0,0,0,0,0,0,0,0,0,0,-0.5358,-0.5339,-0.5381,-0.5383,-0.5383,-0.5403,-0.5404,-0.5404,-0.5402,-0.5401,-0.5401,-0.54,-0.5424,-0.5426,-0.5427,-0.5447,0,0,-0.5432,-0.5432,0,0,0,0,0,0,0,0,-0.5357,-0.536,-0.5382,-0.5383,-0.5383,-0.5399,-0.5398,-0.5419,-0.5402,-0.5395,-0.54,-0.54,-0.5417,-0.5419,-0.5425,-0.5449,-0.545,-0.5432,-0.5433,-0.5433,-0.5434,0,0,0,0,0,0,0,-0.5356,-0.5359,-0.539,-0.5383,-0.5383,-0.5383,-0.5386,-0.5402,-0.5409,-0.5395,-0.5395,-0.5398,-0.5417,-0.5423,-0.5425,-0.545,-0.5432,-0.5433,-0.5434,-0.5435,-0.5494,-0.5494,0,0,0,0,0,0,-0.5354,-0.5358,-0.5389,-0.5391,-0.5369,-0.5385,-0.5387,-0.5395,-0.5408,-0.541,-0.5398,-0.5398,-0.5421,-0.5423,-0.5426,-0.5452,-0.5433,-0.5435,-0.5436,-0.5493,-0.5494,-0.5495,0,0,0,0,0,0,-0.5353,-0.5357,-0.5388,-0.5374,-0.5378,-0.5386,-0.5394,-0.5395,-0.5401,-0.5411,-0.5412,-0.5403,-0.542,-0.5424,-0.5442,-0.5452,-0.5436,-0.5437,-0.5492,-0.5493,-0.5494,-0.5503,0,0,0,0,0,0,-0.5352,-0.5356,-0.5363,-0.5374,-0.5379,-0.5404,-0.5395,-0.5396,-0.5404,-0.5403,-0.5415,-0.5417,-0.542,-0.544,-0.5444,-0.5454,-0.5438,-0.5491,-0.5493,-0.5494,-0.5502,-0.5504,-0.5506,0,0,0,0,0,-0.535,-0.5365,-0.5364,-0.5367,-0.5388,-0.5404,-0.5407,-0.541,-0.5404,-0.5412,-0.5419,-0.5417,-0.5451,-0.5442,-0.5446,-0.5457,-0.5491,-0.5492,-0.5494,-0.5501,-0.5503,-0.5506,0,0,0,0,0,0,-0.5355,-0.5366,-0.5365,-0.5384,-0.5393,-0.5404,-0.5414,-0.5413,-0.5424,-0.5423,-0.5427,-0.543,-0.5449,-0.5455,-0.5445,-0.5478,-0.547,-0.5473,-0.5474,-0.5477,-0.5479,-0.5477,-0.5439,0,0,0,0,0,-0.5358,-0.537,-0.5379,-0.5395,-0.54,-0.5406,-0.5413,-0.5415,-0.5425,-0.5429,-0.5436,-0.5447,-0.546,-0.5468,-0.5481,-0.5502,-0.5506,-0.5512,-0.5514,-0.5516,-0.5518,-0.5531,-0.5535,-0.55,-0.55,-0.55,0,0,-0.5365,-0.5373,-0.538,-0.5396,-0.5403,-0.5416,-0.5409,-0.5423,-0.5433,-0.5431,-0.5449,-0.5455,-0.5467,-0.5488,-0.5497,-0.5493,-0.5529,-0.5518,-0.5519,-0.552,-0.5533,-0.5537,-0.554,-0.5501,-0.55,-0.55,0,0,-0.5384,-0.5391,-0.5405,-0.5413,-0.5424,-0.5428,-0.5432,-0.5443,-0.5447,-0.5465,-0.5464,-0.5477,-0.5499,-0.5508,-0.5515,-0.5539,-0.5538,-0.5543,-0.5554,-0.5567,-0.557,-0.5573,-0.5582,-0.5586,-0.5545,-0.5545,-0.5545,0,-0.5392,-0.541,-0.5413,-0.5427,-0.5435,-0.5433,-0.5449,-0.5456,-0.5471,-0.5477,-0.5472,-0.5501,-0.5509,-0.5532,-0.5538,-0.5544,-0.5549,-0.5542,-0.5569,-0.5572,-0.5574,-0.5584,-0.5587,-0.5546,-0.5546,-0.5546,-0.5546,0,-0.5419,-0.5433,-0.5443,-0.5457,-0.5466,-0.5481,-0.5486,-0.5495,-0.5496,-0.5501,-0.5521,-0.553,-0.5545,-0.5551,-0.5552,-0.5575,-0.5572,-0.5568,-0.556,-0.5578,-0.5587,-0.5591,-0.5547,-0.5546,-0.5546,-0.5546,0,0,-0.5442,-0.5458,-0.5462,-0.5469,-0.5482,-0.5493,-0.5508,-0.5522,-0.553,-0.5541,-0.5555,-0.5574,-0.5571,-0.558,-0.5582,-0.5593,-0.5613,-0.5588,-0.5588,-0.5593,-0.564,-0.5644,-0.5648,-0.5612,-0.5613,-0.5613,-0.564,0,-0.5464,-0.549,-0.5493,-0.5517,-0.553,-0.5529,-0.5542,-0.5552,-0.5558,-0.557,-0.5576,-0.559,-0.5585,-0.559,-0.5601,-0.5608,-0.5623,-0.5606,-0.5626,-0.5627,-0.5624,-0.5652,-0.5656,-0.568,-0.5643,-0.5644,-0.5644,0,-0.5492,-0.5504,-0.5529,-0.5541,-0.5546,-0.5558,-0.5572,-0.5584,-0.5595,-0.5599,-0.5609,-0.561,-0.5627,-0.5617,-0.5642,-0.563,-0.5639,-0.5644,-0.5645,-0.5647,-0.5637,-0.5657,-0.5687,-0.5691,-0.5649,-0.5649,-0.5649,0,-0.5508,-0.553,-0.5548,-0.5554,-0.5568,-0.5576,-0.5583,-0.5594,-0.5603,-0.5615,-0.5621,-0.5636,-0.5644,-0.5656,-0.5661,-0.5654,-0.5686,-0.5677,-0.569,-0.569,-0.5697,-0.5697,-0.5731,-0.5701,-0.5701,-0.5701,-0.5701,0,-0.5532,-0.5548,-0.5555,-0.5566,-0.5584,-0.5588,-0.5606,-0.5612,-0.5622,-0.5635,-0.5636,-0.5648,-0.5654,-0.5668,-0.5672,-0.5693,-0.5696,-0.57,-0.5701,-0.5701,-0.57,-0.5707,-0.5706,-0.5702,-0.5702,-0.5701,-0.5701,0,-0.5553,-0.5558,-0.5578,-0.559,-0.5594,-0.5606,-0.5617,-0.5629,-0.5634,-0.5651,-0.5655,-0.5664,-0.568,-0.5687,-0.5707,-0.571,-0.5733,-0.5733,-0.5729,-0.573,-0.5743,-0.5742,-0.5783,-0.5789,-0.5755,-0.5755,-0.5755,0,-0.5569,-0.5581,-0.5594,-0.5603,-0.5609,-0.5623,-0.5632,-0.5637,-0.5646,-0.5661,-0.5671,-0.5688,-0.5701,-0.5727,-0.5736,-0.5752,-0.5752,-0.5766,-0.5755,-0.5754,-0.5754,-0.5754,-0.5756,-0.5768,-0.5768,-0.5769,-0.5769,0,-0.5597,-0.5599,-0.5611,-0.5625,-0.5636,-0.5648,-0.5659,-0.5666,-0.5672,-0.5683,-0.57,-0.571,-0.5731,-0.5748,-0.5764,-0.5772,-0.5772,-0.5772,-0.5776,-0.5776,-0.5774,-0.5777,-0.5736,-0.5771,-0.5771,-0.5771,-0.5771,-0.5771,-0.5616,-0.5627,-0.5638,-0.5653,-0.5662,-0.5672,-0.5684,-0.5691,-0.5705,-0.5722,-0.5723,-0.5742,-0.5754,-0.5776,-0.5785,-0.58,-0.5796,-0.5802,-0.5804,-0.5805,-0.5807,-0.5771,-0.5803,-0.5803,-0.5803,-0.5803,-0.5802,0,-0.5645,-0.5652,-0.5665,-0.5681,-0.5693,-0.5691,-0.5703,-0.5714,-0.573,-0.5741,-0.5754,-0.5774,-0.579,-0.5801,-0.5817,-0.5828,-0.5828,-0.5832,-0.5832,-0.5834,-0.5808,-0.5804,-0.5831,-0.5831,-0.5831,-0.5831,-0.5831,-0.5831,-0.5661,-0.568,-0.5684,-0.5708,-0.5715,-0.5733,-0.574,-0.575,-0.576,-0.5782,-0.5795,-0.5801,-0.5813,-0.5831,-0.5846,-0.5849,-0.5855,-0.586,-0.5862,-0.5838,-0.5835,-0.5833,-0.5828,-0.5861,-0.5861,-0.5887,-0.5887,-0.5887]},{"header":{"parameterUnit":"m.s-1","parameterCategory":1,"la1":30.2991,"la2":30.254,"lo1":-89.0895,"lo2":-89.0444,"dy":0.0017,"dx":0.0017,"nx":28,"ny":28,"refTime":"2024-05-03T09:00:00:Z","depth":0,"parameterNumber":3,"parameterNumberName":"V-component_of_WINDS"},"data":[0,0,0,0,0,0,0,0,0,0,0,0,0,0,0,0,0,0,0,0,0,0,0,0,0,0,0,0,0,0,0,0,0,0,0,0,0,0,0,0,0,0,0,0,0,0,0,0,0,0,0,0,0,0,0,0,0,0,3.5288,3.5289,0,3.5356,3.5357,3.5358,3.5327,3.5325,3.5324,3.5322,3.5389,3.5392,3.5395,0,0,0,0,0,0,0,0,0,0,0,0,0,3.5126,3.5129,3.5288,3.5289,3.5289,3.5356,3.5357,3.5358,3.5327,3.5325,3.5323,3.5321,3.5388,3.5391,3.5396,0,0,0,0,0,0,0,0,0,0,0,0,0,3.5195,3.513,3.5288,3.5282,3.5282,3.5356,3.5357,3.5358,3.5328,3.5325,3.5323,3.532,3.5386,3.5391,3.5396,3.5478,0,0,3.5411,3.5414,0,0,0,0,0,0,0,0,3.5191,3.5201,3.5282,3.5283,3.5283,3.5331,3.5324,3.5398,3.5328,3.531,3.5322,3.5319,3.5371,3.5377,3.5396,3.5481,3.5484,3.5412,3.5415,3.5417,3.5418,0,0,0,0,0,0,0,3.5187,3.5198,3.5315,3.5283,3.5284,3.5275,3.5282,3.5338,3.5354,3.5312,3.531,3.5318,3.5371,3.5391,3.5397,3.5485,3.5412,3.5416,3.5419,3.5421,3.5638,3.5641,0,0,0,0,0,0,3.5182,3.5194,3.5313,3.5317,3.523,3.528,3.5288,3.5318,3.5353,3.5356,3.5321,3.5317,3.5383,3.5391,3.5399,3.5496,3.5417,3.5422,3.5425,3.5636,3.5639,3.5642,0,0,0,0,0,0,3.5179,3.5193,3.531,3.5255,3.5269,3.5285,3.5319,3.5321,3.534,3.536,3.5362,3.5338,3.5382,3.5392,3.5458,3.5497,3.5424,3.5429,3.5632,3.5637,3.564,3.569,0,0,0,0,0,0,3.5175,3.5192,3.5225,3.5256,3.5272,3.5369,3.5322,3.5324,3.535,3.5345,3.5377,3.538,3.5381,3.5451,3.5463,3.5503,3.5432,3.5629,3.5634,3.5639,3.5685,3.5696,3.5704,0,0,0,0,0,3.5169,3.5236,3.5227,3.5241,3.5313,3.5372,3.5381,3.5381,3.5353,3.5385,3.5397,3.5379,3.5492,3.5458,3.5472,3.5514,3.5626,3.5633,3.5639,3.5681,3.5693,3.5704,0,0,0,0,0,0,3.5207,3.524,3.523,3.5309,3.5338,3.5366,3.5406,3.5395,3.5431,3.5426,3.5423,3.5431,3.5499,3.5513,3.5475,3.5593,3.5554,3.5564,3.5582,3.5594,3.5603,3.5598,3.5437,0,0,0,0,0,3.5225,3.5271,3.5296,3.5364,3.5379,3.539,3.5416,3.5413,3.5443,3.5454,3.5472,3.55,3.5541,3.5569,3.5608,3.5687,3.5693,3.5723,3.5732,3.574,3.5748,3.5789,3.5802,3.5662,3.5662,3.5662,0,0,3.5262,3.5286,3.5315,3.5372,3.5394,3.544,3.5401,3.5452,3.5485,3.5462,3.5525,3.5539,3.557,3.5643,3.5676,3.5656,3.5788,3.5748,3.5754,3.5758,3.5797,3.581,3.5821,3.5666,3.5666,3.5665,0,0,3.5353,3.5376,3.5434,3.5457,3.5491,3.5498,3.5512,3.5542,3.5551,3.5615,3.5598,3.5637,3.5709,3.5731,3.5752,3.585,3.5834,3.5863,3.5913,3.5953,3.5964,3.5974,3.6007,3.6019,3.5871,3.5871,3.5871,0,3.5394,3.5464,3.5465,3.5517,3.5541,3.5524,3.5581,3.5603,3.5648,3.5665,3.5643,3.5732,3.5752,3.5829,3.5853,3.5871,3.5885,3.5859,3.5963,3.5973,3.5982,3.6013,3.6026,3.5874,3.5874,3.5873,3.5873,0,3.5512,3.5561,3.5603,3.5648,3.5678,3.5732,3.5739,3.5769,3.5764,3.5773,3.5837,3.586,3.5903,3.5921,3.5917,3.5997,3.5984,3.5963,3.5923,3.5998,3.6028,3.604,3.5879,3.5877,3.5876,3.5876,0,0,3.5629,3.5673,3.5688,3.5707,3.5743,3.578,3.5833,3.5876,3.5901,3.5932,3.5975,3.6036,3.6017,3.604,3.6038,3.6073,3.6147,3.6047,3.6048,3.6064,3.6235,3.625,3.6264,3.6138,3.614,3.6142,3.6232,0,3.5721,3.5814,3.5816,3.5901,3.5945,3.5928,3.5974,3.6,3.601,3.6047,3.6057,3.61,3.6072,3.6085,3.612,3.6131,3.6181,3.6125,3.6176,3.6177,3.6167,3.628,3.6296,3.638,3.6244,3.6246,3.6247,0,3.5841,3.5876,3.5966,3.5995,3.6013,3.6055,3.6093,3.613,3.6159,3.6163,3.6189,3.6181,3.6233,3.6193,3.6263,3.6225,3.6246,3.6254,3.6258,3.6261,3.6216,3.6285,3.6407,3.6419,3.6266,3.6264,3.6263,0,3.5914,3.5985,3.6048,3.6065,3.61,3.6129,3.6145,3.6172,3.6197,3.623,3.6246,3.6285,3.6306,3.6336,3.6338,3.6309,3.6408,3.6368,3.6411,3.6411,3.6432,3.643,3.6557,3.6448,3.6448,3.6448,3.6447,0,3.6016,3.6071,3.6081,3.6119,3.618,3.6181,3.624,3.6254,3.6277,3.6316,3.6304,3.6341,3.6342,3.638,3.6381,3.6438,3.6448,3.6452,3.6451,3.6452,3.6452,3.6465,3.6458,3.6451,3.645,3.645,3.6449,0,3.6108,3.6117,3.6184,3.6212,3.622,3.6264,3.6287,3.6323,3.6331,3.6381,3.6392,3.6405,3.6448,3.6453,3.6504,3.6505,3.6573,3.6567,3.6563,3.6562,3.6604,3.6599,3.6743,3.6761,3.6641,3.6642,3.6643,0,3.6172,3.6214,3.6247,3.6273,3.629,3.6332,3.6358,3.636,3.6387,3.6422,3.6453,3.6495,3.6529,3.6598,3.6611,3.6649,3.6643,3.669,3.6648,3.6647,3.6641,3.6638,3.6641,3.6698,3.6699,3.67,3.6701,0,3.6283,3.6286,3.6324,3.6364,3.6395,3.6426,3.6455,3.6477,3.6482,3.6512,3.6557,3.6583,3.6634,3.6676,3.6713,3.6727,3.6715,3.6715,3.6726,3.6727,3.6722,3.6723,3.6584,3.6711,3.671,3.6709,3.6709,3.6708,3.6362,3.6398,3.6427,3.6469,3.6491,3.6519,3.6553,3.6566,3.6603,3.6646,3.6644,3.6693,3.6718,3.6767,3.6785,3.6821,3.6805,3.6823,3.6827,3.6831,3.6834,3.6718,3.6828,3.6828,3.6828,3.6828,3.6827,0,3.6472,3.6489,3.6528,3.6569,3.6602,3.6589,3.662,3.6648,3.6691,3.6717,3.6751,3.6801,3.6841,3.6856,3.6895,3.6921,3.6916,3.6931,3.6928,3.6931,3.6847,3.6832,3.6934,3.6934,3.6934,3.6934,3.6934,3.6934,3.6532,3.6592,3.6598,3.6667,3.6684,3.6732,3.6751,3.6775,3.6796,3.6853,3.6886,3.6896,3.6918,3.6957,3.6993,3.6996,3.701,3.7027,3.7028,3.6948,3.6938,3.6927,3.6913,3.7031,3.7031,3.7109,3.711,3.711]}]]